Terminal Aerodrome Forecast
Issued by NWS

Home | Current Version | Previous Version | Text Only | Print | Product List | Glossary On
Versions: 1 2 3 4 5 6 7 8 9 10
505
FTUS44 KSJT 260520
TAFBBD
TAF
KBBD 260520Z 2606/2706 17008KT P6SM BKN250
     FM261200 29011KT P6SM SCT250
     FM261400 30018G26KT P6SM SCT250
     FM270000 31013KT P6SM SCT250
      AMD NOT SKED=

USA.gov is the U.S. government's official web portal to all federal, state and local government web resources and services.